Wetbulb
54.52 54.49 54.42 54.34 53.85 53.66 53.67 53.25 53.14 54.76 54.05 53.81 54.03 54.71 55.42 55.24 54.33 49.09 42.83 47.55 51.11 54.78 54.77 51.60 54.20 55.89 57.63 55.56 54.10 46.61 41.25 38.63 41.51 42.98 44.59 48.35 47.56 51.14 54.99 54.80 55.97 57.20 54.67 55.99 59.19
55.09 54.79 54.45 54.25 53.64 53.72 53.65 53.36 53.13 54.56 53.79 53.76 53.96 54.45 55.12 54.76 47.47 42.50 50.53 56.17 58.19 55.06 49.50 50.14 49.67 51.78 51.86 53.75 53.71 47.12 38.92 40.24 44.26 46.14 46.24 47.56 46.77 48.38 51.32 53.55 54.20 55.91 55.17 58.06 59.69
53.96 54.01 53.84 53.71 53.96 54.20 53.98 53.61 53.22 53.47 53.09 53.43 53.99 54.51 54.75 50.28 40.25 40.92 53.35 54.39 55.24 53.67 51.84 50.85 50.40 50.23 47.96 51.55 51.43 50.22 43.89 42.75 44.43 46.36 46.65 45.92 45.78 47.76 49.44 50.28 53.95 54.36 53.84 56.24 57.33
53.71 53.29 53.93 54.51 54.79 54.84 54.70 54.15 53.86 53.47 53.13 53.36 53.96 54.17 53.28 45.44 28.54 44.33 53.71 53.12 54.03 52.49 50.17 48.52 47.01 45.45 44.76 44.69 49.90 46.32 48.37 45.23 46.10 47.05 46.93 45.33 47.62 46.39 48.31 51.97 53.44 56.16 56.32 56.24 56.34
53.08 54.07 54.33 54.05 54.26 54.55 54.91 54.97 54.56 54.39 54.25 54.16 53.89 53.90 47.84 38.76 38.34 47.62 51.75 51.22 49.39 50.39 46.74 46.25 41.59 43.27 41.41 42.23 45.22 44.99 47.30 48.68 49.09 47.39 47.07 48.48 46.87 46.43 46.92 49.49 50.62 55.39 56.53 56.17 56.77
53.94 53.46 53.55 54.25 54.79 54.88 54.73 54.77 54.83 54.63 54.09 54.02 53.71 53.55 42.91 32.52 45.38 46.81 47.75 47.90 46.89 44.76 46.61 46.74 43.19 44.44 39.70 40.21 41.38 42.42 43.34 43.54 46.87 48.29 47.92 46.43 45.98 47.29 47.96 51.80 51.57 53.78 55.77 56.59 56.68
53.30 52.98 53.37 54.00 54.56 54.53 54.48 54.51 54.67 54.41 53.90 54.10 53.44 50.19 42.82 38.27 45.31 45.43 46.10 45.24 46.11 45.24 42.41 44.41 46.41 43.38 42.45 36.77 40.51 40.43 38.47 41.51 43.43 47.12 47.56 48.07 44.80 44.92 48.54 51.32 53.13 53.50 53.56 56.65 57.23
52.98 52.76 52.90 53.14 53.62 54.04 54.21 54.19 54.04 53.89 53.56 53.62 53.18 45.83 37.57 45.79 45.35 45.62 45.40 44.06 45.97 46.30 44.82 45.61 46.25 44.44 41.68 41.15 37.23 35.19 38.35 34.62 41.94 44.82 46.55 47.15 39.50 46.63 48.88 48.26 48.89 51.83 53.80 54.01 57.11
52.89 52.68 52.74 52.76 52.76 52.81 52.89 52.92 53.12 52.97 52.83 52.97 46.12 41.78 36.65 48.77 43.58 46.21 45.56 42.15 44.07 44.01 44.21 46.04 42.95 39.35 40.19 33.23 29.37 31.19 26.88 32.77 35.21 43.16 45.24 44.95 40.34 46.36 49.25 46.90 48.02 49.28 53.61 53.31 54.50
52.53 52.49 52.36 52.27 52.54 52.87 53.42 51.78 51.79 50.89 49.86 49.62 48.39 41.15 41.66 39.37 44.14 45.04 44.96 44.56 42.20 42.13 40.67 39.47 37.28 33.73 34.99 29.24 19.25 23.67 24.62 28.62 30.73 40.44 44.82 43.53 42.85 46.02 47.59 46.02 48.04 48.81 51.56 54.82 53.48
52.25 52.30 52.34 52.45 52.52 52.98 48.22 42.27 37.88 36.38 41.43 36.62 36.78 37.09 39.32 43.24 45.31 43.01 45.03 43.76 42.93 40.03 33.82 36.20 31.18 27.46 29.33 32.08 29.12 28.52 27.11 25.69 29.46 37.54 38.62 38.61 40.05 42.91 47.17 45.68 45.16 46.76 50.29 53.80 55.43
52.16 52.40 52.29 52.44 52.50 52.31 44.81 39.32 38.83 39.68 34.76 37.90 38.88 40.09 42.22 43.10 38.50 41.21 46.04 39.15 39.03 34.18 37.00 33.48 28.92 31.91 32.52 31.84 31.22 29.47 27.23 26.02 29.43 32.77 33.35 34.51 35.25 40.69 44.02 46.18 47.36 46.32 48.73 51.57 54.39
51.83 52.25 52.26 52.22 51.76 45.85 42.25 41.07 47.86 42.43 32.51 34.76 37.41 37.98 39.72 41.49 37.18 37.83 43.38 40.88 37.41 35.03 34.16 30.89 31.98 34.52 31.48 28.96 27.73 28.72 27.27 26.50 26.52 30.71 32.65 30.17 28.20 34.17 40.63 44.95 47.33 49.28 50.16 52.01 53.42
51.82 51.86 52.18 51.61 43.68 42.06 40.36 46.35 45.04 45.24 26.53 26.34 33.47 40.55 43.34 43.68 36.01 44.56 44.60 41.51 37.71 34.31 34.39 34.41 35.72 32.63 30.02 28.74 28.79 24.96 30.94 29.96 28.88 27.79 21.90 30.91 20.08 30.91 37.44 40.59 44.47 47.12 49.28 50.53 52.83
51.53 51.71 51.54 50.12 40.17 39.47 42.79 44.11 43.66 43.12 8.27 28.36 33.30 43.14 41.10 36.42 37.03 40.95 45.68 41.09 36.19 35.70 35.44 30.01 32.56 32.41 31.04 31.07 30.77 27.29 32.24 30.47 29.71 27.18 25.82 26.04 21.95 27.33 34.82 35.82 42.45 45.90 48.22 50.43 52.35
51.42 51.32 50.84 43.13 39.90 41.74 43.75 42.61 42.63 18.71 7.32 21.63 31.82 31.62 32.07 35.16 38.48 41.86 41.20 42.57 41.74 36.67 36.61 34.18 37.75 35.29 34.03 34.52 33.64 34.24 30.79 30.57 29.61 27.24 20.15 24.97 23.89 23.68 29.45 35.61 41.95 46.04 48.09 49.88 51.00
51.11 50.78 48.10 45.02 36.28 42.59 42.10 36.70 16.76 11.59 23.25 22.46 25.98 30.73 31.06 30.56 34.79 37.28 36.56 35.48 32.68 28.59 27.09 32.89 33.90 37.02 36.78 32.25 34.66 32.36 29.79 20.52 18.90 18.84 17.49 26.40 23.59 26.26 32.96 36.51 38.99 42.09 47.30 49.52 51.54
50.46 46.60 44.57 44.76 42.92 41.39 36.87 23.90 7.30 6.52 13.10 28.06 30.25 29.55 27.31 34.19 34.09 36.28 35.28 33.26 36.67 33.74 30.17 23.44 20.30 31.66 36.77 33.43 30.52 30.64 29.30 21.94 10.20 13.26 17.91 26.25 20.72 27.65 36.71 38.52 42.66 43.57 44.14 49.09 50.42
46.35 38.15 39.69 41.80 43.02 39.66 29.38 8.42 9.76 13.69 24.74 29.03 29.02 21.18 21.99 31.25 31.82 32.49 34.29 33.41 35.02 34.86 28.66 27.80 22.34 33.83 36.36 36.20 34.60 30.79 26.77 30.83 23.23 22.61 21.87 24.09 27.90 34.27 36.68 35.94 35.55 35.62 37.03 37.90 43.43
37.03 36.17 37.58 41.17 41.09 35.77 22.06 16.86 14.22 27.33 30.87 33.75 25.44 25.54 20.83 27.23 29.44 29.98 31.43 37.06 35.96 38.37 37.03 31.49 24.60 32.03 34.66 34.93 34.71 32.43 33.31 24.50 25.94 12.47 16.34 21.09 27.78 26.73 30.38 32.71 32.74 33.67 35.54 37.90 40.35
35.77 30.48 37.93 40.20 38.05 30.86 13.73 11.70 22.50 30.52 32.32 28.47 27.83 26.46 29.14 28.80 29.15 29.56 31.49 34.87 37.38 36.78 37.82 33.37 29.57 26.96 33.09 31.03 28.32 29.67 28.84 30.20 28.71 26.57 20.99 19.31 23.71 31.40 30.54 31.89 31.28 34.25 36.81 38.43 40.54
31.41 20.44 36.49 37.31 24.30 12.13 13.19 20.40 32.18 30.99 32.16 32.89 34.60 32.97 31.43 30.50 30.34 30.04 30.96 32.85 37.99 36.90 32.32 34.72 30.79 27.10 29.07 32.79 34.73 32.92 30.02 31.26 24.27 23.14 26.00 24.89 25.31 37.12 37.72 34.24 34.25 34.37 35.95 37.43 39.71
24.78 27.02 36.17 35.82 16.36 11.40 18.07 27.94 30.07 30.47 31.24 31.54 31.47 34.73 33.50 31.99 27.23 30.36 32.23 34.96 36.61 34.98 34.80 36.16 30.08 25.10 27.79 31.40 34.84 30.38 33.41 31.89 32.33 31.58 27.41 25.00 25.88 39.30 34.97 36.23 34.76 34.01 35.00 36.18 37.14
26.35 20.61 25.70 32.63 25.35 19.87 20.80 20.33 24.32 31.02 30.95 32.13 31.58 34.93 32.73 26.56 31.84 26.23 28.95 33.06 34.95 35.17 38.76 38.02 31.89 29.29 25.87 29.38 33.09 31.43 32.50 34.05 31.90 27.96 28.50 29.11 30.40 35.12 33.76 32.23 33.06 33.86 35.34 36.09 36.69
24.68 18.64 20.09 20.24 20.77 23.99 25.41 25.91 26.47 21.77 30.46 31.16 29.14 31.66 29.22 23.96 18.76 21.81 28.88 29.27 33.23 36.76 35.11 36.00 29.73 31.27 31.48 32.70 31.46 29.12 28.97 32.38 32.30 33.41 31.02 31.76 33.06 34.41 33.74 33.69 33.57 35.54 36.09 35.48 35.47
23.89 22.49 21.98 19.55 26.67 26.90 27.90 19.73 26.37 27.70 28.82 27.72 27.49 29.14 29.07 27.41 25.97 19.08 26.48 28.96 30.99 33.63 33.38 35.52 29.28 31.53 29.10 31.83 31.04 26.34 27.94 29.13 28.69 28.77 32.71 32.24 30.27 34.05 35.44 35.72 34.70 34.16 34.52 33.92 34.42
28.29 28.92 27.92 28.17 25.62 22.05 19.24 24.78 27.25 29.25 29.89 31.00 29.80 28.60 27.70 29.40 29.74 30.82 31.77 31.94 31.69 30.85 31.99 32.30 30.78 26.93 25.92 30.01 30.15 23.63 27.06 27.88 28.64 29.95 30.44 25.55 29.91 34.26 32.54 32.82 32.45 32.77 33.29 32.87 33.46
MSLP
1022.56 1022.43 1022.20 1022.07 1021.88 1021.79 1021.79 1021.56 1021.29 1021.37 1021.17 1020.94 1020.60 1020.25 1019.96 1019.75 1019.51 1019.54 1019.28 1018.83 1018.27 1017.94 1017.79 1017.60 1017.21 1017.15 1017.09 1017.00 1017.17 1017.55 1017.77 1017.27 1016.68 1015.89 1014.84 1013.95 1013.64 1013.31 1013.32 1013.53 1013.92 1014.50 1014.73 1014.65 1015.25
1022.39 1022.36 1022.31 1022.14 1021.91 1021.74 1021.66 1021.71 1021.38 1021.11 1021.16 1021.02 1020.69 1020.36 1020.08 1019.76 1019.71 1019.42 1018.91 1018.02 1017.11 1017.81 1018.07 1017.79 1017.67 1017.44 1017.33 1016.90 1017.04 1017.34 1017.37 1016.72 1016.11 1015.39 1014.83 1014.18 1013.90 1013.54 1013.76 1013.81 1014.00 1014.50 1015.20 1015.52 1015.50
1022.34 1022.33 1022.19 1022.14 1021.94 1021.65 1021.49 1021.53 1021.36 1021.17 1020.89 1020.91 1020.73 1020.41 1020.14 1019.89 1019.84 1019.16 1018.62 1018.36 1017.85 1017.89 1018.24 1018.14 1017.80 1017.63 1017.64 1017.17 1016.84 1016.66 1016.46 1016.52 1015.70 1015.18 1014.86 1014.58 1014.29 1013.91 1013.75 1013.94 1013.39 1013.67 1015.01 1015.94 1015.68
1022.38 1022.28 1022.04 1021.84 1021.68 1021.36 1021.28 1021.33 1021.40 1020.94 1020.81 1020.81 1020.62 1020.43 1020.20 1020.14 1020.18 1019.34 1018.89 1018.48 1018.03 1018.02 1018.20 1018.38 1018.15 1017.97 1017.92 1017.61 1016.81 1016.74 1016.42 1016.24 1015.81 1015.37 1015.23 1015.00 1014.63 1014.28 1013.94 1013.31 1013.25 1013.21 1013.92 1015.63 1015.52
1022.35 1022.01 1021.79 1021.49 1021.32 1021.03 1020.84 1020.93 1021.15 1020.97 1020.70 1020.64 1020.63 1020.49 1020.45 1020.60 1020.14 1019.48 1019.05 1018.64 1018.33 1018.35 1018.60 1018.76 1018.82 1018.54 1018.42 1018.11 1017.60 1017.19 1016.83 1016.50 1016.23 1015.97 1015.80 1015.34 1015.01 1014.69 1013.92 1013.50 1013.60 1013.90 1014.15 1014.52 1014.89
1022.14 1022.11 1021.91 1021.52 1021.12 1020.79 1020.51 1020.55 1020.62 1020.73 1020.65 1020.55 1020.53 1020.58 1020.86 1020.70 1019.58 1019.52 1019.28 1019.13 1018.98 1018.96 1019.21 1019.21 1019.22 1019.05 1018.96 1018.78 1018.70 1018.31 1017.67 1017.22 1016.76 1016.34 1016.00 1015.67 1015.00 1014.67 1013.92 1013.73 1013.67 1014.07 1014.08 1014.16 1014.46
1022.12 1021.82 1021.62 1021.29 1020.95 1020.75 1020.42 1020.33 1020.52 1020.43 1020.42 1020.44 1020.49 1020.80 1020.92 1020.23 1019.47 1019.40 1019.45 1019.47 1019.47 1019.51 1019.58 1019.60 1019.42 1019.46 1019.48 1019.32 1019.24 1018.82 1018.49 1017.49 1016.76 1016.39 1015.85 1015.56 1014.27 1013.68 1014.12 1014.05 1014.18 1014.31 1014.40 1014.44 1014.24
1022.14 1021.82 1021.75 1021.42 1021.24 1021.03 1020.68 1020.50 1020.44 1020.42 1020.22 1020.28 1020.39 1020.88 1020.51 1019.46 1019.38 1019.39 1019.29 1019.40 1019.48 1019.45 1019.49 1019.46 1019.48 1019.74 1019.86 1019.88 1019.67 1019.46 1018.94 1018.23 1016.42 1016.08 1015.68 1015.71 1012.08 1013.36 1013.50 1013.89 1013.93 1014.09 1014.23 1014.55 1014.46
1022.34 1021.99 1021.70 1021.50 1021.37 1021.01 1020.76 1020.59 1020.46 1020.27 1020.12 1020.24 1020.68 1020.93 1020.28 1019.49 1019.46 1019.34 1019.32 1019.44 1019.44 1019.56 1019.55 1019.57 1019.76 1020.22 1020.37 1020.43 1020.44 1019.94 1019.11 1017.73 1017.03 1016.00 1015.63 1014.82 1012.65 1012.90 1013.43 1013.62 1013.43 1013.48 1013.57 1013.77 1014.24
1022.08 1022.04 1021.69 1021.43 1021.30 1021.10 1020.69 1020.19 1020.29 1020.12 1020.28 1020.31 1020.76 1021.38 1020.22 1020.02 1019.67 1019.65 1019.66 1019.56 1019.71 1019.88 1020.08 1020.22 1020.41 1020.69 1020.72 1020.79 1020.43 1020.20 1019.79 1018.50 1017.37 1016.27 1015.54 1014.77 1013.81 1013.55 1013.22 1013.36 1012.91 1012.85 1012.98 1013.07 1013.35
1022.08 1021.83 1021.73 1021.54 1021.21 1020.80 1020.87 1020.95 1021.08 1020.85 1020.62 1020.66 1020.73 1020.59 1020.39 1020.23 1020.00 1019.79 1019.82 1019.80 1019.91 1020.03 1020.25 1020.65 1020.86 1020.32 1020.11 1020.51 1020.16 1020.39 1020.03 1019.16 1018.20 1017.11 1016.46 1015.03 1014.53 1014.22 1013.62 1013.20 1012.90 1012.33 1012.32 1012.20 1012.21
1022.21 1021.95 1021.72 1021.59 1021.20 1020.86 1021.38 1021.88 1021.93 1021.98 1021.49 1020.87 1020.89 1020.92 1020.52 1020.37 1020.28 1019.82 1019.89 1020.06 1019.95 1019.95 1020.03 1020.79 1020.20 1019.91 1020.31 1020.71 1020.77 1020.54 1020.21 1018.46 1019.11 1018.47 1017.87 1016.04 1014.65 1014.32 1013.53 1012.78 1012.34 1011.98 1011.63 1011.57 1011.47
1022.13 1022.07 1021.70 1021.69 1021.41 1021.52 1021.84 1022.10 1021.91 1021.89 1022.12 1021.13 1020.73 1020.55 1020.32 1020.37 1020.01 1019.62 1019.64 1019.61 1019.62 1019.63 1019.76 1019.97 1019.42 1018.98 1020.05 1020.48 1020.83 1020.05 1020.05 1019.72 1019.27 1018.56 1017.54 1017.19 1014.82 1014.08 1012.76 1012.13 1011.46 1010.97 1010.71 1010.68 1010.51
1022.32 1022.14 1021.91 1021.58 1021.81 1022.29 1022.13 1022.00 1022.05 1021.88 1022.29 1021.66 1021.09 1020.59 1020.17 1019.88 1019.58 1018.90 1018.95 1019.29 1019.47 1019.44 1019.35 1019.31 1018.76 1019.27 1019.89 1019.94 1019.95 1019.72 1019.46 1019.36 1019.45 1019.19 1017.77 1016.69 1013.94 1013.13 1011.88 1010.63 1009.98 1009.47 1009.35 1009.31 1009.50
1022.07 1021.99 1022.09 1021.84 1022.27 1022.40 1022.28 1022.11 1022.05 1022.12 1022.84 1021.86 1021.09 1020.52 1020.22 1020.41 1019.62 1019.02 1018.81 1019.14 1019.11 1019.06 1019.42 1018.51 1018.51 1018.50 1018.76 1018.33 1019.12 1018.80 1018.57 1018.59 1018.89 1018.36 1017.97 1016.89 1016.29 1012.51 1012.36 1010.24 1008.92 1008.59 1008.12 1008.23 1008.27
1022.11 1021.84 1022.13 1022.37 1022.71 1022.31 1021.84 1021.99 1022.18 1023.19 1023.12 1022.31 1021.42 1021.03 1020.73 1020.03 1019.51 1018.93 1018.93 1019.13 1018.94 1018.87 1018.65 1018.03 1017.87 1017.90 1017.22 1017.31 1017.70 1017.91 1018.45 1018.33 1018.62 1018.49 1017.47 1016.21 1015.65 1012.28 1011.57 1009.68 1008.63 1007.78 1007.31 1006.92 1007.24
1022.15 1021.96 1022.10 1022.29 1022.65 1022.23 1021.93 1022.67 1023.79 1024.29 1024.10 1023.33 1022.44 1021.73 1021.08 1020.12 1019.36 1019.04 1018.81 1018.82 1018.87 1018.64 1017.97 1017.47 1016.79 1016.31 1016.87 1016.89 1016.99 1017.69 1017.84 1017.97 1018.08 1017.58 1015.88 1014.58 1014.18 1011.85 1010.27 1009.11 1008.16 1007.33 1006.53 1006.29 1006.36
1022.07 1022.01 1022.30 1022.60 1022.27 1022.03 1022.51 1023.93 1025.27 1025.96 1024.95 1023.89 1022.87 1022.03 1021.36 1020.06 1019.38 1018.92 1018.62 1018.36 1018.05 1018.30 1017.91 1017.33 1016.14 1015.46 1015.47 1015.36 1015.31 1015.57 1015.84 1016.06 1016.40 1016.16 1014.66 1013.21 1011.74 1009.55 1008.55 1008.71 1007.92 1007.06 1006.63 1005.95 1005.71
1022.32 1022.72 1022.90 1022.79 1022.21 1022.25 1023.42 1025.26 1026.01 1025.82 1024.90 1024.05 1022.91 1022.59 1021.70 1020.34 1019.92 1019.25 1018.39 1018.16 1018.10 1018.28 1018.41 1017.27 1015.80 1014.36 1014.21 1014.40 1015.16 1015.22 1015.24 1015.04 1015.58 1014.77 1014.15 1011.88 1010.22 1008.69 1008.10 1008.02 1008.31 1007.99 1007.65 1007.04 1006.37
1022.49 1023.02 1023.38 1022.97 1022.24 1022.87 1024.70 1026.08 1025.79 1025.10 1024.35 1023.57 1023.28 1022.89 1022.11 1020.83 1020.28 1019.57 1018.56 1017.93 1017.95 1017.99 1018.08 1017.49 1016.08 1014.41 1014.27 1014.84 1015.25 1015.03 1014.70 1015.33 1015.81 1015.54 1013.68 1011.47 1010.75 1010.54 1009.67 1009.81 1010.28 1009.09 1008.73 1008.07 1007.31
1022.76 1023.36 1023.52 1022.97 1022.51 1023.86 1026.03 1026.26 1025.25 1024.25 1023.80 1023.47 1023.08 1022.74 1022.01 1021.33 1020.51 1019.81 1018.86 1018.06 1017.90 1017.84 1017.99 1017.16 1016.86 1014.58 1014.70 1014.63 1014.45 1014.98 1014.35 1013.97 1014.21 1014.47 1013.69 1012.56 1011.93 1011.53 1011.39 1011.75 1010.25 1009.86 1009.38 1008.70 1008.24
1023.15 1024.09 1023.56 1022.99 1024.16 1025.97 1026.74 1025.72 1024.45 1023.81 1023.33 1023.06 1022.84 1022.54 1022.12 1021.63 1020.82 1020.08 1019.23 1018.75 1018.02 1018.04 1017.23 1016.77 1016.27 1014.52 1013.76 1013.91 1013.54 1013.30 1013.54 1013.46 1013.50 1013.53 1013.97 1013.81 1012.57 1011.95 1011.45 1010.68 1010.52 1010.41 1010.10 1009.76 1009.06
1023.65 1024.27 1023.75 1023.38 1025.07 1026.60 1026.41 1025.64 1024.73 1023.71 1022.95 1022.53 1022.39 1022.44 1022.25 1021.95 1021.44 1020.35 1019.43 1018.17 1018.01 1018.06 1017.27 1016.56 1015.98 1014.60 1013.64 1013.70 1013.98 1013.24 1012.93 1013.20 1013.07 1012.81 1012.47 1012.45 1012.23 1011.90 1011.69 1011.46 1011.89 1011.25 1010.83 1010.30 1010.26
1023.62 1024.74 1024.72 1024.47 1025.72 1025.92 1026.31 1025.46 1024.25 1023.35 1022.70 1022.25 1022.11 1021.97 1022.16 1021.96 1021.61 1020.86 1020.06 1018.55 1018.08 1017.82 1017.33 1016.37 1015.56 1015.11 1014.65 1013.97 1013.18 1012.88 1012.34 1012.53 1013.15 1012.74 1012.22 1012.05 1012.27 1012.46 1012.40 1012.36 1012.44 1011.81 1011.36 1011.26 1011.28
1023.50 1024.58 1024.37 1025.27 1025.83 1025.70 1025.46 1024.78 1024.02 1023.27 1022.68 1022.07 1022.10 1022.11 1022.57 1022.67 1022.29 1021.64 1020.70 1019.50 1018.02 1017.94 1017.28 1016.45 1015.60 1015.09 1014.63 1014.45 1013.98 1013.84 1013.13 1012.70 1012.48 1012.43 1012.54 1012.92 1012.80 1013.33 1013.72 1013.56 1013.65 1013.28 1013.07 1012.39 1012.19
1022.71 1023.94 1024.84 1024.85 1025.07 1025.40 1025.07 1024.47 1023.46 1022.80 1022.49 1022.12 1022.17 1022.17 1022.61 1022.75 1022.30 1022.03 1021.53 1020.90 1019.58 1018.33 1017.98 1016.92 1015.94 1015.38 1014.99 1014.62 1014.54 1014.75 1014.51 1014.15 1013.76 1013.62 1013.33 1013.46 1014.54 1014.94 1014.78 1014.68 1014.31 1014.09 1014.01 1013.65 1014.14
1021.81 1022.08 1022.15 1024.42 1024.89 1025.23 1024.32 1023.37 1022.83 1022.47 1022.08 1021.88 1021.96 1022.14 1022.45 1022.29 1022.19 1021.89 1021.75 1021.55 1020.74 1020.16 1018.93 1018.08 1017.16 1016.31 1015.44 1014.94 1014.66 1015.48 1016.46 1016.16 1015.72 1015.53 1015.32 1015.23 1016.15 1015.92 1015.65 1015.60 1015.64 1015.40 1015.22 1015.35 1015.47
Wind_Speed
10 10 9 12 13 13 13 11 10 13 10 11 12 13 14 12 12 3 2 6 7 6 7 5 1 3 2 3 3 3 2 5 6 6 5 1 4 0 2 6 3 3 1 2 22
12 12 13 15 14 14 12 12 10 10 10 11 13 13 13 11 3 3 4 16 12 4 3 3 2 3 2 4 4 5 4 8 5 4 4 4 3 2 2 3 3 3 4 13 23
12 13 14 15 14 13 12 12 10 10 9 11 12 13 10 6 2 2 7 14 8 4 2 1 2 1 3 2 5 5 13 4 3 5 3 3 4 1 4 4 6 9 10 16 21
13 14 14 15 15 14 12 11 11 10 11 10 11 11 7 4 1 2 13 11 9 5 3 2 1 3 3 5 4 8 4 5 3 4 2 2 5 5 4 4 2 6 19 19 20
13 14 14 15 15 15 14 12 12 11 10 9 9 10 3 5 6 5 10 9 6 2 3 2 2 1 4 2 4 5 4 5 5 7 6 6 6 6 7 6 5 7 16 20 18
12 13 14 16 15 14 11 11 10 9 8 9 7 7 2 3 2 3 8 8 8 5 3 3 1 1 2 2 2 6 5 6 5 7 4 5 7 5 5 5 4 8 14 16 18
10 12 13 14 14 12 8 7 8 7 6 8 6 2 3 11 3 3 3 3 2 2 2 2 2 4 2 4 5 5 6 10 2 1 5 0 18 19 6 4 6 6 5 10 15
9 10 12 13 13 12 10 7 6 5 5 6 5 2 6 4 2 4 2 1 2 2 4 2 1 3 2 2 6 5 1 4 3 7 7 9 28 4 10 10 14 8 6 9 14
9 10 11 12 12 12 11 9 6 4 5 6 2 3 7 4 3 3 1 3 3 3 1 2 3 2 1 4 2 2 5 11 9 12 8 17 19 17 9 8 14 11 9 10 11
7 9 11 12 13 14 13 7 3 2 2 0 1 2 3 3 3 2 3 2 3 3 4 2 3 2 3 4 7 6 5 5 8 2 6 15 16 10 7 8 16 12 12 11 12
6 8 11 13 16 12 6 3 5 5 2 6 1 2 1 3 1 2 2 3 2 1 2 2 3 10 13 10 2 3 3 5 4 3 7 16 11 10 9 9 11 9 10 11 13
7 8 10 13 15 7 3 4 3 3 7 3 6 5 5 4 5 4 4 2 3 5 2 2 9 11 4 6 8 7 10 17 3 8 6 13 18 13 13 16 13 12 13 14 12
7 8 10 13 9 5 2 3 4 4 1 5 2 2 3 5 5 5 9 4 6 6 8 8 7 2 9 4 8 16 14 6 8 5 11 10 21 16 14 17 17 17 16 11 15
7 8 9 13 5 3 1 2 3 1 3 6 2 1 2 2 4 6 10 4 3 4 7 9 10 16 6 11 14 15 12 16 7 5 6 6 16 17 9 20 21 21 21 21 16
5 5 7 6 2 0 1 3 2 2 6 4 2 3 3 2 6 2 2 3 5 6 3 6 7 9 17 20 12 10 8 13 12 14 4 13 7 6 13 18 19 20 22 22 22
3 3 4 3 2 2 4 3 1 8 5 6 2 4 6 3 3 1 2 2 2 6 13 17 3 8 13 11 17 1 7 4 4 5 10 17 11 5 13 19 13 18 20 24 21
2 2 1 3 2 1 3 4 8 6 4 8 3 4 6 4 3 3 3 4 4 5 6 5 20 13 11 10 13 14 7 3 5 7 9 11 12 15 12 15 15 17 19 20 22
1 3 3 0 1 2 4 7 7 4 6 3 4 6 4 6 2 3 3 3 8 7 5 4 9 11 13 18 9 19 12 6 7 4 11 6 10 8 19 19 24 8 9 15 19
4 2 2 3 2 3 7 6 9 7 3 5 5 5 5 3 1 5 4 3 1 5 4 6 8 3 8 7 12 7 10 10 3 4 7 6 5 3 7 8 10 7 7 7 6
4 2 1 7 2 5 7 4 3 4 2 1 3 2 3 4 3 6 4 2 3 3 6 4 10 2 0 5 5 0 5 4 3 4 6 5 1 3 13 10 12 7 8 7 6
4 4 3 5 3 6 4 7 4 6 4 1 1 3 4 4 3 2 5 4 5 7 10 8 5 5 3 5 8 5 4 4 5 2 4 6 3 7 7 10 5 6 7 10 9
3 2 3 2 5 2 2 6 3 3 3 2 2 4 3 5 5 3 4 3 7 8 10 2 5 6 3 3 5 10 7 5 4 5 4 6 4 6 7 7 7 7 10 11 11
4 2 2 3 3 2 5 3 3 3 4 3 3 5 2 4 5 4 4 6 7 9 5 5 4 6 2 0 3 8 10 11 7 2 5 0 3 5 5 11 8 10 11 13 15
4 2 4 3 0 6 4 4 2 4 3 3 3 1 3 3 6 5 4 5 13 6 19 9 3 3 3 4 3 4 5 16 13 4 3 6 6 5 9 11 12 13 13 13 13
3 4 3 4 3 3 4 5 2 3 4 4 2 3 2 4 5 4 3 8 7 6 12 6 4 2 3 4 9 12 11 4 10 5 2 5 3 11 11 11 10 10 10 14 16
7 6 1 3 3 5 1 5 7 3 5 4 4 2 4 6 7 5 1 3 5 9 6 6 5 3 2 3 10 18 20 14 9 8 7 9 8 5 8 10 13 14 13 14 14
2 1 4 5 3 4 6 5 7 5 4 3 3 1 4 9 6 8 6 8 10 9 5 5 6 5 3 7 4 7 11 12 5 10 5 8 4 4 11 13 13 14 13 13 12
Wind_Direction
340 334 342 339 338 335 332 337 342 330 342 342 339 343 339 344 329 6 307 246 252 286 0 306 27 340 250 208 141 143 194 211 211 186 240 210 205 97 338 130 168 202 173 323 139
356 347 337 333 333 330 329 332 331 342 340 343 338 340 338 339 339 315 267 359 20 229 11 43 49 356 245 191 179 181 201 222 214 198 265 288 207 194 180 176 202 138 47 129 148
346 338 331 327 326 324 322 321 320 327 332 338 340 339 353 345 336 231 324 359 31 82 65 330 314 98 183 269 193 200 234 209 241 233 265 279 295 256 156 243 212 190 154 163 162
339 331 325 319 312 305 304 306 306 312 319 335 333 338 352 5 1 51 348 346 2 106 68 13 3 154 191 210 251 233 240 199 217 287 313 262 304 295 217 236 74 195 158 168 175
333 327 334 329 318 310 302 286 289 299 311 324 331 335 8 9 262 330 354 353 37 57 63 88 38 141 182 306 337 273 270 291 296 296 298 323 267 258 275 275 307 131 160 178 188
333 343 338 333 327 319 302 302 288 296 310 320 326 344 65 314 200 95 46 16 29 36 33 33 129 293 3 356 323 337 314 288 288 296 267 279 268 196 270 344 275 173 190 187 190
352 347 344 348 352 345 333 312 298 309 312 316 323 41 267 255 170 236 349 199 151 51 38 15 331 56 8 318 341 311 308 307 270 217 253 185 263 242 234 324 302 253 241 208 198
346 352 351 356 358 358 355 342 321 307 315 306 329 71 255 275 306 311 181 78 205 207 170 325 268 100 126 303 6 18 320 267 168 187 217 156 260 309 206 220 249 247 220 218 218
352 354 355 356 353 351 341 321 301 311 298 296 350 110 271 324 325 344 173 133 78 46 86 37 54 99 66 110 351 217 225 220 258 242 232 205 260 249 231 216 244 240 221 209 221
0 355 353 353 346 338 333 332 242 107 48 5 60 310 282 336 313 39 358 120 106 127 76 85 82 119 182 143 230 190 229 225 217 209 225 248 254 264 292 226 230 229 222 213 208
350 352 351 346 338 331 359 359 10 9 34 199 273 230 357 326 330 281 183 113 108 75 180 157 190 216 212 216 234 47 342 283 351 298 323 270 278 298 265 242 242 227 222 212 216
342 343 347 341 340 4 44 63 126 175 312 282 271 277 261 126 295 262 152 233 195 235 159 200 255 250 212 209 237 255 255 260 297 274 279 290 280 274 271 266 237 241 231 227 224
334 335 345 338 345 31 25 106 130 94 327 298 217 236 280 155 223 252 173 206 237 234 207 225 246 189 191 186 223 238 241 263 237 325 283 297 283 275 245 248 251 242 237 224 221
323 336 344 341 55 301 30 89 77 110 35 295 339 316 261 248 261 207 193 189 233 279 237 251 257 249 190 224 216 254 221 242 235 202 240 150 276 253 256 233 231 232 231 230 220
321 346 351 38 223 8 324 46 87 94 39 282 337 304 298 234 301 80 142 132 233 211 179 235 195 214 230 229 190 233 194 205 214 230 273 252 275 259 249 263 234 236 232 230 227
321 0 19 19 5 266 59 78 53 43 275 337 339 337 349 212 226 260 194 234 327 253 224 246 233 221 225 226 207 305 236 215 229 214 235 241 213 205 242 249 248 242 238 225 217
306 344 32 120 255 63 63 45 37 107 322 321 332 322 316 270 295 216 228 188 240 281 228 226 238 228 217 227 207 203 164 203 211 201 242 222 214 238 245 243 255 253 242 226 223
357 53 11 192 293 58 56 49 73 238 245 319 317 323 335 338 279 308 274 264 238 244 301 275 305 186 193 210 193 197 185 173 190 220 246 193 221 223 229 247 257 262 291 236 221
94 15 42 328 100 61 72 54 199 203 217 357 336 31 315 281 273 329 256 227 254 178 267 294 260 279 197 205 169 156 210 213 334 235 260 210 286 293 48 7 341 344 340 347 332
98 73 335 306 99 64 73 232 193 206 199 264 24 113 301 312 317 343 290 147 349 239 215 289 288 244 170 100 207 211 160 145 186 294 264 284 257 350 359 329 296 345 337 333 328
68 77 276 318 65 57 150 224 247 234 193 154 263 282 269 299 296 302 305 320 32 317 307 236 236 297 172 195 168 184 192 220 163 227 312 322 12 348 313 259 322 350 353 357 346
117 64 296 347 61 38 187 203 219 253 164 225 256 238 262 313 274 267 268 272 310 325 318 207 287 273 243 157 245 190 184 251 168 186 187 248 251 277 322 6 15 26 29 22 15
125 151 306 83 129 284 294 286 281 228 196 194 272 220 193 265 290 261 300 237 297 340 341 341 254 304 334 116 137 213 214 208 270 341 205 289 306 331 16 46 13 41 35 42 30
106 96 335 63 1 136 171 251 256 220 232 202 266 234 276 284 231 287 290 302 320 292 326 311 266 283 325 323 318 245 194 192 208 211 207 205 198 120 36 32 8 13 24 32 36
47 235 201 186 255 173 175 177 183 252 234 188 272 193 244 289 315 259 305 299 294 17 328 324 276 289 278 109 61 29 9 338 214 279 288 86 47 50 39 33 19 30 27 37 31
138 143 348 126 138 125 222 242 199 212 184 220 191 193 218 245 204 267 313 291 292 319 312 315 301 331 279 165 68 46 25 29 37 355 57 104 67 15 32 31 28 29 31 38 34
191 12 110 145 120 110 222 208 209 169 223 219 183 143 247 249 251 250 241 255 271 297 319 295 325 335 298 342 48 34 9 14 39 23 351 45 3 352 41 31 17 10 29 34 13